Tracking 27422 objects as of 31-May-2023
HD Live streaming from Space Station
objects crossing your sky now

STARLINK-5052

Track STARLINK-5052 now!
10-day predictions
STARLINK-5052 is classified as:


NORAD ID: 53893
Int'l Code: 2022-119H
Perigee: 546.1 km
Apogee: 547.7 km
Inclination: 53.2 °
Period: 95.4 minutes
Semi major axis: 6917 km
RCS: Unknown
Launch date: September 24, 2022
Source: United States (US)
Launch site: AIR FORCE EASTERN TEST RANGE (AFETR)
Your satellite tracking list
Your tracking list is empty




NASA's NSSDC Master Catalog

Two Line Element Set (TLE):
1 53893U 22119H   23150.54376561 -.00000815  00000-0 -33103-4 0  9991
2 53893  53.2156 196.7549 0001179  82.3353 277.7773 15.08836255 38582
Source of the keplerian elements: AFSPC